DLH36N LFRS-EDDF

Flight info

Callsign DLH36N
Flight time N/A
Altitude 34000
Route ANG UL976 OBATO UM163 TSU UN858 OQQAL DCT RANUX DCT VALEK DCT LUTAX UM163 DIK T856 NIVNU T847 IMCOM IMCOM1D
Aircraft A320/M-SDE3FGHIRWY/LB1

Departure

Time 2026-04-27 12:19
Airport Nantes Atlantique Airport (LFRS)

Arrival

Time N/A
Airport Frankfurt Main Airport (EDDF)
Time Latitude Longitude Altitude Speed Heading
2026-04-27 11:49 47.15646 -1.60104 99 ft 0 kts 44°
2026-04-27 12:13 47.15632 -1.60127 99 ft 4 kts 45°
2026-04-27 12:13 47.15616 -1.60148 99 ft 2 kts 50°
2026-04-27 12:13 47.15603 -1.60178 98 ft 4 kts 60°
2026-04-27 12:14 47.15591 -1.60213 100 ft 4 kts 65°
2026-04-27 12:14 47.15587 -1.60227 97 ft 0 kts 63°
2026-04-27 12:16 47.15587 -1.60225 99 ft 2 kts 64°
2026-04-27 12:17 47.15608 -1.60216 99 ft 4 kts 313°
2026-04-27 12:17 47.15583 -1.60290 100 ft 13 kts 164°
2026-04-27 12:17 47.15522 -1.60349 100 ft 11 kts 248°
2026-04-27 12:17 47.15543 -1.60451 101 ft 10 kts 304°
2026-04-27 12:18 47.15593 -1.60551 100 ft 17 kts 312°
2026-04-27 12:18 47.15679 -1.60735 97 ft 22 kts 305°
2026-04-27 12:18 47.15650 -1.60821 98 ft 13 kts 204°
2026-04-27 12:18 47.15391 -1.61019 96 ft 81 kts 208°
2026-04-27 12:19 47.14693 -1.61550 96 ft 144 kts 207°
2026-04-27 12:19 47.13670 -1.62331 320 ft 178 kts 208°
2026-04-27 12:19 47.12530 -1.63064 1077 ft 179 kts 191°
2026-04-27 12:19 47.11293 -1.63071 1822 ft 181 kts 160°
2026-04-27 12:20 47.10284 -1.61953 2367 ft 187 kts 117°
2026-04-27 12:20 47.09998 -1.60104 2901 ft 198 kts 82°
2026-04-27 12:20 47.10296 -1.58012 3411 ft 220 kts 76°
2026-04-27 12:20 47.10631 -1.55691 3930 ft 245 kts 77°
2026-04-27 12:21 47.10963 -1.53172 4757 ft 256 kts 78°
2026-04-27 12:21 47.11295 -1.50582 5728 ft 260 kts 78°
2026-04-27 12:21 47.11631 -1.47940 6670 ft 266 kts 78°
2026-04-27 12:21 47.11973 -1.45246 7514 ft 272 kts 79°
2026-04-27 12:22 47.12325 -1.42479 8407 ft 278 kts 78°
2026-04-27 12:22 47.12689 -1.39665 9288 ft 284 kts 78°
2026-04-27 12:22 47.13064 -1.36781 10151 ft 290 kts 79°
2026-04-27 12:22 47.13547 -1.33863 10641 ft 309 kts 69°
2026-04-27 12:23 47.14556 -1.30947 10943 ft 333 kts 56°
2026-04-27 12:23 47.16088 -1.28297 11519 ft 344 kts 43°
2026-04-27 12:23 47.17966 -1.26069 12286 ft 350 kts 38°
2026-04-27 12:23 47.19910 -1.23881 13106 ft 353 kts 38°
2026-04-27 12:24 47.21876 -1.21639 13879 ft 358 kts 38°
2026-04-27 12:24 47.23834 -1.19399 14548 ft 363 kts 38°
2026-04-27 12:24 47.25849 -1.17095 15213 ft 369 kts 38°
2026-04-27 12:24 47.27891 -1.14759 15867 ft 374 kts 38°
2026-04-27 12:25 47.29962 -1.12392 16547 ft 379 kts 38°
2026-04-27 12:25 47.32059 -1.09998 17197 ft 384 kts 38°
2026-04-27 12:25 47.34191 -1.07566 17878 ft 388 kts 38°
2026-04-27 12:25 47.36327 -1.05133 18524 ft 393 kts 38°
2026-04-27 12:26 47.38502 -1.02650 19091 ft 397 kts 38°
2026-04-27 12:26 47.40690 -1.00141 19679 ft 400 kts 38°
2026-04-27 12:26 47.42906 -0.97598 20243 ft 404 kts 38°
2026-04-27 12:26 47.45113 -0.95064 20787 ft 408 kts 38°
2026-04-27 12:27 47.47371 -0.92466 21344 ft 412 kts 38°
2026-04-27 12:27 47.49647 -0.89844 21877 ft 416 kts 38°
2026-04-27 12:27 47.51944 -0.87196 22400 ft 420 kts 38°
2026-04-27 12:27 47.54259 -0.84521 22920 ft 424 kts 38°
2026-04-27 12:28 47.56617 -0.81833 23367 ft 429 kts 37°
2026-04-27 12:28 47.59017 -0.79138 23789 ft 435 kts 36°
2026-04-27 12:28 47.61421 -0.76458 24223 ft 438 kts 36°
2026-04-27 12:28 47.63870 -0.73732 24655 ft 441 kts 36°
2026-04-27 12:29 47.66334 -0.70984 25060 ft 444 kts 36°
2026-04-27 12:29 47.68814 -0.68204 25448 ft 448 kts 36°
2026-04-27 12:29 47.71273 -0.65427 25825 ft 451 kts 37°
2026-04-27 12:29 47.73783 -0.62580 26210 ft 455 kts 36°
2026-04-27 12:30 47.76309 -0.59711 26592 ft 458 kts 37°
2026-04-27 12:30 47.78858 -0.56812 26966 ft 462 kts 37°
2026-04-27 12:30 47.81419 -0.53894 27380 ft 464 kts 37°
2026-04-27 12:30 47.83960 -0.51003 27804 ft 466 kts 36°
2026-04-27 12:31 47.86548 -0.48065 28178 ft 469 kts 36°
2026-04-27 12:31 47.89170 -0.45088 28540 ft 473 kts 36°
2026-04-27 12:31 47.91798 -0.42101 28887 ft 476 kts 36°
2026-04-27 12:31 47.94445 -0.39083 29224 ft 480 kts 36°
2026-04-27 12:32 47.97109 -0.36036 29554 ft 483 kts 36°
2026-04-27 12:32 47.99746 -0.33011 29855 ft 486 kts 36°
2026-04-27 12:32 48.02434 -0.29911 30176 ft 489 kts 38°
2026-04-27 12:32 48.04940 -0.26442 30473 ft 492 kts 47°
2026-04-27 12:33 48.07102 -0.22441 30750 ft 494 kts 56°
2026-04-27 12:33 48.08869 -0.18027 31027 ft 495 kts 65°
2026-04-27 12:33 48.10330 -0.13429 31305 ft 496 kts 66°
2026-04-27 12:33 48.11803 -0.08763 31698 ft 495 kts 66°
2026-04-27 12:34 48.13276 -0.04084 32097 ft 494 kts 66°
2026-04-27 12:34 48.14742 0.00580 32476 ft 493 kts 66°
2026-04-27 12:34 48.16201 0.05244 32852 ft 493 kts 66°
2026-04-27 12:34 48.17627 0.09829 33229 ft 492 kts 66°
2026-04-27 12:35 48.19072 0.14482 33616 ft 491 kts 66°
2026-04-27 12:35 48.20512 0.19134 34006 ft 491 kts 66°
2026-04-27 12:35 48.21951 0.23782 34180 ft 490 kts 66°
2026-04-27 12:36 48.24800 0.32981 34207 ft 484 kts 66°
2026-04-27 12:36 48.27152 0.40623 34208 ft 483 kts 66°
2026-04-27 12:37 48.29971 0.49810 34211 ft 484 kts 66°
2026-04-27 12:37 48.32788 0.59033 34210 ft 484 kts 66°
2026-04-27 12:38 48.35584 0.68210 34206 ft 484 kts 66°
2026-04-27 12:38 48.38396 0.77421 34203 ft 484 kts 66°
2026-04-27 12:39 48.41193 0.86649 34196 ft 484 kts 66°
2026-04-27 12:39 48.43962 0.95864 34203 ft 485 kts 66°
2026-04-27 12:40 48.46728 1.05107 34197 ft 485 kts 66°
2026-04-27 12:40 48.49507 1.14410 34198 ft 485 kts 66°
2026-04-27 12:41 48.52272 1.23711 34196 ft 485 kts 66°
2026-04-27 12:41 48.55029 1.32980 34190 ft 486 kts 66°
2026-04-27 12:42 48.57799 1.42318 34182 ft 487 kts 66°
2026-04-27 12:42 48.60539 1.51613 34184 ft 487 kts 67°
2026-04-27 12:43 48.63283 1.60994 34180 ft 488 kts 67°
2026-04-27 12:43 48.65889 1.70303 34200 ft 488 kts 69°
2026-04-27 12:44 48.68148 1.79666 34185 ft 488 kts 71°
2026-04-27 12:44 48.70384 1.89402 34193 ft 489 kts 71°
2026-04-27 12:45 48.72676 1.99106 34201 ft 489 kts 71°
2026-04-27 12:45 48.75014 2.08797 34201 ft 490 kts 71°
2026-04-27 12:46 48.77104 2.18629 34199 ft 489 kts 75°
2026-04-27 12:46 48.78809 2.28552 34195 ft 490 kts 77°
2026-04-27 12:47 48.80473 2.38605 34168 ft 490 kts 76°
2026-04-27 12:47 48.82233 2.48635 34171 ft 491 kts 76°
2026-04-27 12:48 48.84037 2.58633 34194 ft 491 kts 76°
2026-04-27 12:48 48.85812 2.68594 34189 ft 492 kts 75°
2026-04-27 12:49 48.87580 2.78663 34187 ft 492 kts 76°
2026-04-27 12:49 48.89326 2.88702 34181 ft 493 kts 76°
2026-04-27 12:50 48.91072 2.98812 34181 ft 493 kts 76°
2026-04-27 12:50 48.92798 3.08835 34185 ft 493 kts 75°
2026-04-27 12:51 48.94532 3.18953 34184 ft 493 kts 75°
2026-04-27 12:51 48.96256 3.29086 34186 ft 494 kts 75°
2026-04-27 12:52 48.97965 3.39161 34186 ft 494 kts 75°
2026-04-27 12:52 48.99680 3.49322 34188 ft 494 kts 76°
2026-04-27 12:53 49.02210 3.64488 34192 ft 494 kts 75°
2026-04-27 12:53 49.03898 3.74666 34197 ft 494 kts 75°
2026-04-27 12:54 49.05576 3.84844 34188 ft 494 kts 75°
2026-04-27 12:54 49.07231 3.94942 34186 ft 494 kts 75°
2026-04-27 12:55 49.08897 4.05137 34179 ft 494 kts 76°
2026-04-27 12:55 49.10549 4.15335 34177 ft 495 kts 76°
2026-04-27 12:56 49.12180 4.25490 34181 ft 495 kts 76°
2026-04-27 12:56 49.13862 4.35699 34182 ft 494 kts 71°
2026-04-27 12:57 49.16404 4.45438 34185 ft 493 kts 65°
2026-04-27 12:57 49.19037 4.55131 34190 ft 493 kts 65°
2026-04-27 12:58 49.21638 4.64782 34214 ft 493 kts 65°
2026-04-27 12:58 49.24243 4.74485 34211 ft 492 kts 66°
2026-04-27 12:59 49.26825 4.84137 34202 ft 492 kts 66°
2026-04-27 12:59 49.29419 4.93870 34209 ft 491 kts 65°
2026-04-27 13:00 49.31996 5.03572 34207 ft 491 kts 65°
2026-04-27 13:00 49.34545 5.13197 34204 ft 490 kts 66°
2026-04-27 13:01 49.37095 5.22899 34199 ft 490 kts 66°
2026-04-27 13:01 49.39635 5.32616 34192 ft 490 kts 66°
2026-04-27 13:02 49.42165 5.42315 34222 ft 489 kts 66°
2026-04-27 13:02 49.44685 5.52018 34207 ft 488 kts 66°
2026-04-27 13:03 49.47196 5.61716 34202 ft 488 kts 66°
2026-04-27 13:03 49.49855 5.71277 34202 ft 484 kts 58°
2026-04-27 13:04 49.53845 5.79482 34201 ft 475 kts 40°
2026-04-27 13:04 49.58960 5.85612 34196 ft 466 kts 27°
2026-04-27 13:05 49.64417 5.91070 34207 ft 468 kts 28°
2026-04-27 13:05 49.69874 5.96563 34221 ft 467 kts 28°
2026-04-27 13:06 49.75309 6.02042 34221 ft 466 kts 28°
2026-04-27 13:06 49.80740 6.07520 34216 ft 466 kts 28°
2026-04-27 13:07 49.86192 6.12909 34227 ft 462 kts 23°
2026-04-27 13:07 49.91989 6.17074 34215 ft 458 kts 19°
2026-04-27 13:08 49.97802 6.21149 34198 ft 459 kts 19°
2026-04-27 13:08 50.03555 6.25348 34224 ft 460 kts 20°
2026-04-27 13:09 50.09326 6.29628 34205 ft 460 kts 20°
2026-04-27 13:09 50.15111 6.33902 34195 ft 460 kts 20°
2026-04-27 13:10 50.20902 6.38175 34178 ft 462 kts 20°
2026-04-27 13:10 50.26740 6.42477 34194 ft 464 kts 20°
2026-04-27 13:11 50.29540 6.45044 34179 ft 472 kts 33°
2026-04-27 13:11 50.31922 6.48631 34174 ft 480 kts 48°
2026-04-27 13:11 50.33715 6.53070 34181 ft 486 kts 63°
2026-04-27 13:11 50.34781 6.58091 34180 ft 489 kts 78°
2026-04-27 13:12 50.35035 6.63354 34183 ft 490 kts 94°
2026-04-27 13:12 50.34727 6.68654 34187 ft 490 kts 96°
2026-04-27 13:12 50.34031 6.79295 34190 ft 491 kts 96°
2026-04-27 13:13 50.32551 6.89668 34200 ft 488 kts 115°
2026-04-27 13:13 50.29709 6.99300 34207 ft 488 kts 117°
2026-04-27 13:14 50.26838 7.08908 34207 ft 488 kts 117°
2026-04-27 13:14 50.23958 7.18529 34211 ft 488 kts 117°
2026-04-27 13:15 50.21068 7.28139 34216 ft 488 kts 117°
2026-04-27 13:15 50.18278 7.37821 34185 ft 489 kts 114°
2026-04-27 13:16 50.15907 7.47786 34198 ft 490 kts 111°
2026-04-27 13:16 50.13677 7.57775 34209 ft 490 kts 111°
2026-04-27 13:17 50.11333 7.67741 34215 ft 490 kts 112°
2026-04-27 13:17 50.09137 7.77793 34218 ft 491 kts 108°
2026-04-27 13:18 50.08340 7.82947 34217 ft 491 kts 95°
2026-04-27 13:18 50.08537 7.88219 34217 ft 488 kts 75°
2026-04-27 13:18 50.10838 7.98120 34214 ft 486 kts 66°
2026-04-27 13:19 50.13226 8.07932 34220 ft 487 kts 67°
2026-04-27 13:19 50.15607 8.17841 34242 ft 488 kts 67°